Regional Weather Roundup
Issued by NWS Upton, NY

Home | Current Version | Previous Version | Text Only | Print | Product List | Glossary On
Versions: 1 2 3 4 5 6 7 8 9 10 11 12 13 14 15 16 17 18 19 20 21 22 23 24 25 26 27 28 29 30 31 32 33 34 35 36 37 38 39 40 41 42 43 44
000
ASUS41 KOKX 230505
RWROKX

REGIONAL WEATHER ROUNDUP
NATIONAL WEATHER SERVICE NEW YORK NY
1200 AM EST TUE DEC 23 2014

NOTE: "FAIR" INDICATES FEW OR NO CLOUDS BELOW 12,000 FEET WITH NO
SIGNIFICANT WEATHER AND/OR OBSTRUCTIONS TO VISIBILITY.

NYZ071-072-176-178-NJZ106-104-230600-
NEW YORK CITY METRO AREA


CITY           SKY/WX    TMP DP  RH WIND       PRES   REMARKS
CENTRAL PARK   CLOUDY    44  42  93 VRB6      30.18F
LAGUARDIA APRT DRIZZLE   43  42  97 NE12      30.16F FOG
KENNEDY INTL   CLOUDY    47  43  86 E14       30.16F
NEWARK/LIBERTY CLOUDY    46  43  89 NE10      30.14F
BRNX BOT. GARD   N/A     43  41  93 E6        30.16F
TETERBORO      LGT RAIN  45  42  89 E6        30.16F
$$

NYZ177-179-078>081-230600-
LONG ISLAND NEW YORK

CITY           SKY/WX    TMP DP  RH WIND       PRES   REMARKS
FARMINGDALE    LGT RAIN  47  44  90 E12G22    30.17F
ISLIP          LGT RAIN  47  43  86 E14       30.16F
SHIRLEY        LGT RAIN  47  43  86 VRB3      30.20F
WESTHAMPTON    LGT RAIN  47  42  83 E9        30.21S
MONTAUK POINT    N/A     47  41  80 E8        30.24S
$$

NYZ052-065-067-230600-
HUDSON VALLEY

CITY           SKY/WX    TMP DP  RH WIND       PRES   REMARKS
WHITE PLAINS   LGT RAIN  43  41  93 E9G17     30.15F FOG
NEWBURGH       NOT AVBL
MONTGOMERY     CLOUDY    37  36  96 N8        30.18S FOG     WCI  31
POUGHKEEPSIE   CLOUDY    37  34  89 N5        30.19F FOG     WCI  33
ALBANY         CLOUDY    34  27  75 N3        30.23F
$$

NJZ001-105-106-008-010-013-015-019>022-104-230600-
NEW JERSEY

CITY           SKY/WX    TMP DP  RH WIND       PRES   REMARKS
NEWARK/LIBERTY CLOUDY    46  43  89 NE10      30.14F
TETERBORO      LGT RAIN  45  42  89 E6        30.16F
CALDWELL       CLOUDY    43  31  62 E10       30.15F
MORRISTOWN     CLOUDY    45  43  93 NE6       30.16S
SOMERVILLE     LGT RAIN  44  41  89 CALM      30.12F
SUSSEX         CLOUDY    37  36  96 NE7       30.15F FOG     WCI  32
ANDOVER        NOT AVBL
TRENTON        CLOUDY    45  43  93 NE3       30.13R FOG
MILLVILLE      CLOUDY    44  42  93 NE9       30.07F
ATLANTIC CITY  CLOUDY    46  44  93 NE8       30.09F
WRIGHTSTOWN    LGT RAIN  44  44 100 NW3       30.10R
TOMS RIVER     CLOUDY    46  45  93 E6        30.11F
BELMAR         MOCLDY    46  43  87 E12       30.10F
$$

PAZ047>061-062-071-230600-
EASTERN PENNSYLVANIA

CITY           SKY/WX    TMP DP  RH WIND       PRES   REMARKS
PHILADELPHIA   CLOUDY    44  41  89 NE12      30.11F
ALLENTOWN      LGT RAIN  38  35  89 CALM      30.14S FOG
SCRANTON       LGT RAIN  42  37  82 VRB5      30.10S
$$

CTZ002-004>006-009-010-012-RIZ004-006-007-MAZ004-011-015-230600-
SOUTHERN NEW ENGLAND
 IN CT

CITY           SKY/WX    TMP DP  RH WIND       PRES   REMARKS
BRADLEY INTL   DRIZZLE   39  35  86 N5        30.25F
HARTFORD       CLOUDY    40  37  89 VRB5      30.25F
DANBURY        CLOUDY    40  37  89 NE7       30.20F FOG
WTRBRY/OXFORD  CLOUDY    39  34  81 E8        30.20F WCI  34
BRIDGEPORT     LGT RAIN  44  42  93 E16       30.20F
MERIDEN        LGT RAIN  41  38  89 NE3       30.23F FOG
NEW HAVEN      LGT RAIN  46  40  79 NE7       30.21F
CHESTER        LGT RAIN  43  39  87 E6        30.23S
GROTON         CLOUDY    44  40  85 E12       30.24R
WILLIMANTIC    CLOUDY    43  36  76 E3        30.26S

 IN RI

CITY           SKY/WX    TMP DP  RH WIND       PRES   REMARKS
PROVIDENCE     CLOUDY    40  37  89 NE6       30.27F
BLOCK ISLAND   CLOUDY    45  37  76 E17G23    30.22F
WESTERLY       CLOUDY    44  40  85 E9        30.24F

 IN MA

CITY           SKY/WX    TMP DP  RH WIND       PRES   REMARKS
BOSTON         MOCLDY    42  37  82 E12       30.29F
WORCESTER      FOG       35  35 100 NE8       30.24F VSB 1/4 WCI  29
WESTFIELD      CLOUDY    38  34  85 N6        30.26S WCI  33
PROVINCETOWN   MOCLDY    43  37  81 E10       30.29F
NANTUCKET      CLOUDY    45  41  86 E10       30.25F
$$

ANZ330-335-338-340-345-350-353-355-230600-
COASTAL MARINE OBSERVATIONS


STATION/POSITION TIME  SKY/WX   TEMP    WIND        PRES    VSBY  WAVE
                                AIR SEA DIR/SP/G                  HT/PER
                 (UTC)          (F)     (DEG/KT/KT) (MB)    (MI)  (FT/S)
NY HARB ENTRANCE 0500            47 45   70/ 16/ 17 1020.6          5/ 7
4S FIRE IS       0500               47                N/A           6/ 6
20S FIRE ISLAND  0400            51 50              1021.7          6/ 7
23SW MTP         0500                                 N/A           7/ 6
HUDSON CANYON    0500            56     100/ 14       N/A
EXECUTION ROCKS  0500            43 41   70/ 16/ 19   N/A
WESTERN LI SOUND 0500            44      70/ 16/ 17   N/A           2/ 4
CENTRAL LI SOUND 0400            45 44  100/ 16/ 17   N/A           2/ 3
EASTERN LI SOUND NOT AVBL
ROBBINS REEF     0500            46                 1019.6
$$


>>>>>>>>>>>>>>>>>>>>>>>>>>>> KEY <<<<<<<<<<<<<<<<<<<<<<<<<<<
>                                                          <
>     SKY/WX - SKY CONDITION/PRESENT WEATHER               <
>     TMP    - TEMPERATURE IN FAHRENHEIT                   <
>     DP     - DEWPOINT IN FAHRENHEIT                      <
>     RH     - RELATIVE HUMIDITY IN PERCENT                <
>     WIND   - DIRECTION AND SPEED IN MPH                  <
>     PRES   - MEAN SEA LEVEL PRESSURE IN INCHES OF HG     <
>     WCI    - WIND CHILL INDEX                            <
>     VSB    - VISIBILITY IN MILES                         <
>     HX     - HEAT INDEX                                  <
>     TC     - TEMPERATURE IN CELSIUS                      <
>     VRB    - VARIABLE WIND DIRECTION                     <
>                                                          <
>>>>>>>>>>>>>>>>>>>>>>>>>>>> KEY <<<<<<<<<<<<<<<<<<<<<<<<<<<




USA.gov is the U.S. government's official web portal to all federal, state and local government web resources and services.